Location: ??
(35.1714°N, 128.2806°E)
Time: 15:42:59
(UTC+00:00)

Cosmos 2292 Rocket - Pass Details

Date: 29 October 2020
Orbit: 381 x 1451 km, 83.0° (Epoch: 30 November)

Event Time Altitude Azimuth Distance (km) Brightness Sun altitude
Rises 20:39:02 0° 169° (S) 2,254 6.7 -14.3°
Reaches altitude 10° 20:40:58 10° 161° (SSE) 1,440 5.8 -13.9°
Maximum altitude 20:43:49 38° 90° (E) 674 4.4 -13.3°
Drops below altitude 10° 20:47:09 10° 21° (NNE) 1,691 6.0 -12.6°
Sets 20:49:35 0° 14° (NNE) 2,725 6.9 -12.1°
